Regional Weather Roundup
Issued by NWS

Home | Current Version | Previous Version | Text Only | Print | Product List | Glossary Off
Versions: 1 2 3 4 5 6 7 8 9 10 11 12 13 14 15 16 17 18 19 20 21 22 23 24 25 26 27 28 29 30 31 32 33 34 35 36 37 38 39 40 41 42 43 44 45 46 47 48 49 50

000
ASUS43 KLOT 050508
RWRIL

ILLINOIS REGIONAL WEATHER ROUNDUP
NATIONAL WEATHER SERVICE CHICAGO/ROMEOVILLE IL
1200 AM CDT TUE MAY 05 2015

NOTE: "FAIR" INDICATES FEW OR NO CLOUDS BELOW 12,000 FEET WITH NO
SIGNIFICANT WEATHER AND/OR OBSTRUCTIONS TO VISIBILITY.

* THESE STATIONS ARE NOT UNDER NWS QUALITY CONTROL. THEY ALSO MAY NOT
  REPORT WEATHER SUCH AS PRECIPITATION OR FOG.

ILZ001-002-007-009-015-016-024-050600-
NORTHWEST ILLINOIS

CITY           SKY/WX    TMP DP  RH WIND       PRES   REMARKS
MOLINE         LGT RAIN  65  62  90 E10       30.10S FOG
STERLING*      CLOUDY    57  54  88 NE12G18   30.15S
SAVANNA*       RAIN      59  56  91 NE10      30.16R
$$

ILZ003-004-008-010-011-017-018-050600-
NORTH CENTRAL ILLINOIS

CITY           SKY/WX    TMP DP  RH WIND       PRES   REMARKS
ROCKFORD       RAIN      53  47  79 SW6       30.23R
FREEPORT*      RAIN      52  48  84 SE10      30.22R
ROCHELLE*      RAIN      53  49  85 NE12      30.17F
DE KALB*       TSTM      51  45  79 E5        30.20R
PERU*          CLOUDY    60  57  91 E10       30.15R
$$

ILZ005-006-012>014-019>023-050600-
NORTHEAST ILLINOIS

CITY           SKY/WX    TMP DP  RH WIND       PRES   REMARKS
CHICAGO-OHARE  CLOUDY    55  37  50 NE5       30.17S
CHICAGO-MIDWAY MOCLDY    60  33  36 NE10      30.17S
AURORA         CLOUDY    54  46  74 N6        30.19R
LANSING*       MOCLDY    53  47  79 NE3       30.18S
JOLIET*        CLOUDY    61  51  69 CALM      30.18R
WAUKEGAN       MOCLDY    47  39  74 CALM      30.19S
DUPAGE AIRPORT CLOUDY    57  37  47 E8        30.16S
KANKAKEE*      CLOUDY    60  59  96 NE7       30.15S FOG
WHEELING       MOCLDY    54  36  50 NE5       30.19F
MORRIS*        LGT RAIN  59  53  83 E9        30.13F
ROMEOVILLE*    CLOUDY    57  46  65 E6        30.17R
NORTHERLY ISL    N/A     52  39  61 MISG        N/A
$$

LMZ740>746-050600-
SOUTHERN LAKE MICHIGAN

STATION/POSITION SKY/WX   TEMP    WIND        PRES    VSBY  WAVE
                          AIR SEA DIR/SP/G                  HT/PER
                          (F)     (DEG/KT/KT) (MB)    (MI)  (FT/S)
HARRISON CRIB              48     350/  8/  9   N/A
BURNHAM HARBOR             52     360/  2/  7   N/A
CALUMET HARBOR             51     340/  5/  8   N/A
BURNS HARBOR               53      60/  8/ 10 1022.0F
MICHIGAN CITY              53      30/  8/  8   N/A
MICHIGAN CITY 6N           52 50   60/  8/ 10   N/A           1
ST. JOSEPH                 53 50   60/  2/  4   N/A           0
$$

ILZ025>027-034>036-040-047-049-050-058-095>099-050600-
WEST-CENTRAL ILLINOIS

CITY           SKY/WX    TMP DP  RH WIND       PRES   REMARKS
QUINCY         CLOUDY    66  62  87 SE7       30.07F
GALESBURG*     CLOUDY    64  61  90 E8        30.09F
MACOMB*        CLOUDY    64  63  96 S6        30.10S
JACKSONVILLE*  CLOUDY    69  62  77 E5        30.09S
PITTSFIELD*    CLOUDY    69  60  71 CALM      30.10S
$$

ILZ028>032-037-038-041>044-048-051>054-059>061-050600-
CENTRAL ILLINOIS

CITY           SKY/WX    TMP DP  RH WIND       PRES   REMARKS
PONTIAC        CLOUDY    63  62  97 E9        30.16R FOG
BLOOMINGTON    LGT RAIN  65  64  96 S12       30.14F
DECATUR        CLOUDY    68  62  81 N7        30.14R
PEORIA         CLOUDY    67  61  81 E7        30.10S
LACON*         CLOUDY    65  62  90 E8        30.11S FOG
LINCOLN*       CLOUDY    67  62  84 E8        30.09S
SPRINGFIELD    CLOUDY    69  62  78 E6        30.11R
TAYLORVILLE    CLOUDY    72  55  56 S9        30.11R
$$

ILZ033-039-045-046-055>057-062-063-050600-
EAST-CENTRAL ILLINOIS

CITY           SKY/WX    TMP DP  RH WIND       PRES   REMARKS
CHAMPAIGN      CLOUDY    64  59  83 E9        30.13S
DANVILLE*      CLOUDY    62  60  93 SE8       30.12S
RANTOUL*       CLOUDY    64  62  93 SE6       30.14R FOG
MATTOON        MOCLDY    70  56  61 S9        30.12S
PARIS*         MOCLDY    64  59  84 SE6       30.15S
$$

ILZ079-100>102-050600-
SOUTHWEST ILLINOIS

CITY           SKY/WX    TMP DP  RH WIND       PRES   REMARKS
ALTON          CLOUDY    72  50  45 S10       30.12R
BELLEVILLE     PTCLDY    69  56  64 VRB5      30.12R
CAHOKIA*       PTCLDY    73  54  51 S7        30.12R
SPARTA*        CLEAR     71  54  55 S8        30.16R
$$

ILZ064>066-069>071-074>076-080>082-084>086-088>090-092>094-050600-
SOUTH-CENTRAL ILLINOIS

CITY           SKY/WX    TMP DP  RH WIND       PRES   REMARKS
CARBONDALE     CLEAR     64  54  69 S6        30.17R
CAIRO*         CLEAR     68  54  60 SE5       30.18R
EFFINGHAM*     PTCLDY    71  51  49 SE6       30.16S
MARION         CLEAR     68  55  64 SW3       30.18R
MT. VERNON     PTCLDY   N/A N/A N/A S8        30.16S
CENTRALIA*     CLEAR     69  54  58 S10       30.15S
SALEM*         CLEAR     73  54  51 S10       30.15S
METROPOLIS*    CLEAR     65  55  69 CALM      30.18R
$$

ILZ067-068-072-073-078-083-087-091-050600-
SOUTHEAST ILLINOIS

CITY           SKY/WX    TMP DP  RH WIND       PRES   REMARKS
LAWRENCEVILLE  CLEAR     66  56  70 S8        30.17R
FLORA*         CLEAR     67  55  66 S8        30.17R
FAIRFIELD*     CLEAR     67  56  67 S5        30.16R
HARRISBURG*    CLEAR     62  57  83 CALM      30.19R
ROBINSON*      PTCLDY    68  55  63 S8        30.17R
CARMI*         CLEAR     64  54  69 S7        30.17R
$$

ABBREVIATIONS USED IN REMARKS
   TC - TEMPERATURE IN CELSIUS
  WCI - WIND CHILL INDEX
   HX - HEAT INDEX
  VSB - VISIBILITY
$$



USA.gov is the U.S. government's official web portal to all federal, state and local government web resources and services.